FALCON 9 R/B, 63103

Orbit data source: Space-Track

FALCON 9 R/B, 63103 is space debris in HEO originally from a launch on Thu, 27 Feb 2025 UTC launched from the Air Force Eastern Test Range (AFETR). Debris objects in space refer to the collection of defunct objects orbiting the Earth. Examples of debris include non-operational satellites, rocket bodies, and fragments generated from explosions, collisions, or faulty payload assembly.

Loading next visibility...
Identifier
63103, 2025-038E
Orbit
HEO
Last TLE update
2 months ago
Origin
Manufacturer
SpaceX
Mission
Spacecraft
Bus & Motor
F9ST2, Unknown motor
Mass
~4,000 kg wet, ~4,000 kg dry
Launch date (UTC)
2025-02-27 (2 months ago)
Launch vehicle
Unknown
Launch site
Air Force Eastern Test Range (AFETR)
Object type
Payload
Rocket body
Debris
Shape & HBR
Cyl, 15.53 m
Radar Cross Section
39.980 m²

Expand to show TLE details & history

TLE from 2 months ago
0 FALCON 9 R/B
1 63103U 25038E   25058.03746186 -.00007054  00000-0  00000-0 0  9993
2 63103  28.5200 357.2438 9653600 216.4100   0.0142  0.10463308    09
Epoch: 2025-02-27T00:53Z
Definitive object data (Epoch: 2025-02-27T00:53:56.704Z)
Latitude
-2.41715°
Longitude
-177.27109°
Altitude
51,153.232 km
Speed
3.429 km/s
True Right ascension
23h 33m 20s
True Declination
-2° 24' 55"
Sunlit
Object was in daylight at TLE epoch
Visualization TLE readout
Latitude
13.67915°
Longitude
-148.06623°
Altitude
232,375.949 km
Speed
1.115 km/s
Apparent Right ascension
01h 31m 49s
Apparent Declination
12° 58' 22"
Sunlit
Object is in daylight
Visualization observer readout
Local Sidereal Time
00:10:48
Azimuth
140.851° SSE
Elevation
57.696°
Doppler factor
1
Orbital elements
Apogee altitude
367,518.128 km
Perigee altitude
211.885 km
Semi-major axis
190,243.144 km
Eccentricity
0.96536
Inclination
28.52°
RAAN
357.2438°
Arg. of periapsis
216.41°
True anomaly
3.0537°
Mean anomaly
0.0142°
Eccentric anomaly
0.4055°
Mean motion
0.02616 °/min
BSTAR
Unknown
Orbital period
13763.31 mins
Loading maneuver chart data...
Loading SW <> Apogee altitude chart data...
Loading historical data...
Loading historical data...
Loading historical data...
Loading historical data...
Loading historical data...
Loading historical data...
Loading historical data...
Other satellites on launch #38 in the year 2025 (2025-02-27 UTC)

FALCON 9 R/B Visibility forecast

Observer location: undefined°, undefined°

Span
Click to sort rows by Start time (UTC) header in descending order
Start Az.
Max El. time (UTC)
Max El. Az.
Max El.
End time (UTC)
End Az.
430 mins2025-05-06 16:12:11.456Z140.854° SSE2025-05-06 17:34:11.456Z180.962° SSW41.753°2025-05-06 23:22:11.456Z278.917° WNW
260 mins2025-05-07 11:52:11.456Z80.043° E2025-05-07 16:12:11.456Z134.832° SE40.222°2025-05-07 16:12:11.456Z134.832° SE
|